User: anonymous   Login
Location: Unspecified
(0.0000°N, 0.0000°E)
Time: 21:05:52
(UTC+00:00)
Language:

STARLINK-31619 - Orbit

View from above orbital plane
View from above orbital plane
View from above satellite
View from above satellite

Ground track
Ground track

The orbit is defined by the following mean orbital elements,

1 59531U          26145.56054478 +.00000000 +00000-0 +33759-3 0 00003
2 59531  42.9963 243.7514 0000964 272.2631  87.8110 15.27591471    03
Epoch (UTC): 25 May 2026 13:27:11
Eccentricity: 0.0000964
inclination: 42.9963°
perigee height: 482 km
apogee height: 484 km
right ascension of ascending node: 243.7514°
argument of perigee: 272.2631°
revolutions per day: 15.27591471
mean anomaly at epoch: 87.8110°

The dashed part of the orbit path shows where the satellite is in the earth's shadow,  

DLR